Overview Statistics Trail Chart Weather Telemetry Raw packets
 

This is the latest recevied weather packets stored in our database for station/object K7OWW-2. If no packets are shown the sender has not sent any weather packets the latest 10 day(s).

<< 39 40 41 42 43 44 45 >>
Time Temp. Humidity Pressure Rain* Wind** Luminosity Snow
1787983139 10.56° C 78% 1014.9 hPa 0 mm - - -
1787982539 10.56° C 78% 1014.7 hPa 0 mm - - -
1787981939 10.56° C 77% 1014.9 hPa 0 mm - - -
1787981339 10.56° C 76% 1014.7 hPa 0 mm - - -
1787980739 11.11° C 74% 1014.8 hPa 0 mm - - -
1787980139 11.11° C 75% 1014.7 hPa 0 mm - - -
1787978939 11.67° C 73% 1014.6 hPa 0 mm - - -
1787978339 12.22° C 73% 1014.6 hPa 0 mm - - -
1787977739 12.78° C 71% 1014.5 hPa 0 mm - - -
1787977139 12.78° C 69% 1014.2 hPa 0 mm - - -
1787976539 13.33° C 68% 1014.2 hPa 0 mm - - -
1787975939 13.33° C 67% 1014.2 hPa 0 mm - - -
1787975339 13.89° C 67% 1014 hPa 0 mm - - -
1787974739 14.44° C 65% 1013.8 hPa 0 mm - - -
1787974139 14.44° C 64% 1013.8 hPa 0 mm - - -
1787973539 15° C 63% 1013.7 hPa 0 mm - - -
1787972939 15.56° C 62% 1013.7 hPa 0 mm - - -
1787972339 16.11° C 60% 1013.5 hPa 0 mm - - -
1787971739 16.67° C 58% 1013.4 hPa 0 mm - - -
1787971441 16.67° C 58% 1013.3 hPa 0 mm - - -
1787971139 16.67° C 58% 1013.3 hPa 0 mm - - -
1787970539 17.22° C 56% 1013.1 hPa 0 mm - - -
1787969939 17.78° C 54% 1013.1 hPa 0 mm - - -
1787969339 18.33° C 52% 1013 hPa 0 mm - - -
1787968739 18.89° C 51% 1013 hPa 0 mm - - -

* Rain latest hour (hover to see other rain measurements)
** Current wind speed in m/s (hover to see current wind gust speed)